TimeEEST,TemperatureF,Dew PointF,Humidity,Sea Level PressureIn,VisibilityMPH,Wind Direction,Wind SpeedMPH,Gust SpeedMPH,PrecipitationIn,Events,Conditions,WindDirDegrees,DateUTC
12:00 AM,56,45,56,29.87,12,SW,8.9,,,,Clear,230,2013-09-02 21:00:00
12:00 AM,55.4,46.4,72,29.86,-9999.0,SW,8.9,-,N/A,,Clear,230,2013-09-02 21:00:00
12:30 AM,55.4,46.4,72,29.86,-9999.0,SW,8.9,-,N/A,,Clear,230,2013-09-02 21:30:00
1:00 AM,55.4,46.4,72,29.83,-9999.0,SW,8.9,-,N/A,,Clear,230,2013-09-02 22:00:00
1:30 AM,55.4,46.4,72,29.83,-9999.0,SW,8.9,-,N/A,,Clear,230,2013-09-02 22:30:00
2:00 AM,53.6,46.4,77,29.80,-9999.0,SW,8.9,-,N/A,,Clear,230,2013-09-02 23:00:00
2:30 AM,55.4,46.4,72,29.80,-9999.0,SW,8.9,-,N/A,,Clear,230,2013-09-02 23:30:00
3:00 AM,55.4,46.4,72,29.77,-9999.0,SW,8.9,-,N/A,,Clear,220,2013-09-03 00:00:00
3:30 AM,55.4,46.4,72,29.74,-9999.0,SW,11.2,-,N/A,,Clear,230,2013-09-03 00:30:00
4:00 AM,53.6,46.4,77,29.74,-9999.0,WSW,8.9,-,N/A,,Clear,240,2013-09-03 01:00:00
4:30 AM,53.6,48.2,82,29.74,6.2,SW,8.9,-,N/A,Rain,Light Rain,230,2013-09-03 01:30:00
5:00 AM,53.6,48.2,82,29.71,6.2,SW,8.9,-,N/A,Rain,Light Rain,220,2013-09-03 02:00:00
5:30 AM,53.6,48.2,82,29.71,6.2,SW,8.9,-,N/A,Rain,Light Rain,220,2013-09-03 02:30:00
6:00 AM,51.8,50.0,94,29.68,4.3,SW,11.2,-,N/A,Rain,Light Rain,230,2013-09-03 03:00:00
6:30 AM,51.8,50.0,94,29.68,3.7,SW,8.9,-,N/A,Rain,Light Rain Showers,230,2013-09-03 03:30:00
7:00 AM,51.8,50.0,94,29.65,3.7,SW,11.2,-,N/A,Rain,Light Rain Showers,220,2013-09-03 04:00:00
7:30 AM,51.8,50.0,94,29.65,3.1,SW,13.4,-,N/A,Rain,Light Rain Showers,230,2013-09-03 04:30:00
8:00 AM,51.8,50.0,94,29.65,5.0,WSW,13.4,-,N/A,Rain,Light Rain Showers,240,2013-09-03 05:00:00
8:30 AM,51.8,51.8,100,29.65,6.2,WSW,13.4,-,N/A,Rain,Light Rain Showers,240,2013-09-03 05:30:00
9:00 AM,52,51,94,29.65,12,WSW,8.9,,,Rain,Light Rain,240,2013-09-03 06:00:00
9:00 AM,51.8,51.8,100,29.62,6.2,WSW,13.4,-,N/A,Rain,Light Rain,250,2013-09-03 06:00:00
9:30 AM,51.8,51.8,100,29.65,3.7,WSW,13.4,-,N/A,Rain,Light Rain Showers,250,2013-09-03 06:30:00
10:00 AM,53.6,51.8,94,29.65,6.2,West,13.4,-,N/A,Rain,Light Rain Showers,270,2013-09-03 07:00:00
10:30 AM,53.6,50.0,88,29.65,6.2,West,11.2,-,N/A,,Mostly Cloudy,280,2013-09-03 07:30:00
11:00 AM,57.2,53.6,88,29.65,6.2,West,11.2,-,N/A,,Mostly Cloudy,270,2013-09-03 08:00:00
11:30 AM,55.4,50.0,82,29.65,6.2,West,11.2,-,N/A,Rain,Light Rain Showers,270,2013-09-03 08:30:00
12:00 PM,56,50,74,29.67,12,West,6.7,,,Rain,Light Rain Showers,260,2013-09-03 09:00:00
12:00 PM,59.0,51.8,77,29.65,6.2,West,13.4,-,N/A,,Mostly Cloudy,270,2013-09-03 09:00:00
12:30 PM,59.0,48.2,67,29.65,6.2,West,15.7,-,N/A,,Mostly Cloudy,260,2013-09-03 09:30:00
1:00 PM,59.0,50.0,72,29.65,6.2,West,15.7,-,N/A,,Mostly Cloudy,260,2013-09-03 10:00:00
1:30 PM,60.8,50.0,68,29.65,6.2,West,17.9,-,N/A,,Mostly Cloudy,260,2013-09-03 10:30:00
2:00 PM,59.0,48.2,67,29.65,6.2,West,17.9,-,N/A,,Mostly Cloudy,260,2013-09-03 11:00:00
2:30 PM,55.4,50.0,82,29.65,6.2,West,13.4,-,N/A,Rain,Light Rain Showers,260,2013-09-03 11:30:00
3:00 PM,56,50,75,29.66,12,WSW,8.9,,,Rain,Light Rain Showers,240,2013-09-03 12:00:00
3:00 PM,57.2,51.8,82,29.65,6.2,WSW,11.2,-,N/A,,Mostly Cloudy,250,2013-09-03 12:00:00
3:23 PM,57.2,48.2,72,29.62,6.2,WSW,17.9,31.3,N/A,,Mostly Cloudy,240,2013-09-03 12:23:00
3:30 PM,57.2,50.0,77,29.62,6.2,WSW,17.9,31.3,N/A,,Mostly Cloudy,240,2013-09-03 12:30:00
4:00 PM,55.4,51.8,88,29.62,6.2,WSW,15.7,-,N/A,Rain,Light Rain Showers,240,2013-09-03 13:00:00
4:30 PM,53.6,51.8,94,29.62,6.2,WSW,8.9,-,N/A,Rain,Light Rain Showers,240,2013-09-03 13:30:00
5:00 PM,53.6,50.0,88,29.62,6.2,WSW,8.9,-,N/A,Rain,Light Rain Showers,250,2013-09-03 14:00:00
5:30 PM,55.4,53.6,94,29.62,6.2,SW,6.7,-,N/A,,Mostly Cloudy,230,2013-09-03 14:30:00
6:00 PM,54,51,87,29.62,12,West,6.7,,,Rain,Heavy Rain Showers,260,2013-09-03 15:00:00
6:00 PM,53.6,51.8,94,29.59,6.2,West,13.4,-,N/A,Rain,Light Rain Showers,260,2013-09-03 15:00:00
6:30 PM,53.6,50.0,88,29.62,6.2,West,11.2,-,N/A,,Mostly Cloudy,270,2013-09-03 15:30:00
7:00 PM,53.6,51.8,94,29.62,6.2,West,8.9,-,N/A,Rain,Light Rain Showers,270,2013-09-03 16:00:00
7:30 PM,53.6,51.8,94,29.62,6.2,West,8.9,-,N/A,Rain,Light Rain Showers,270,2013-09-03 16:30:00
8:00 PM,53.6,51.8,94,29.62,5.0,WNW,8.9,-,N/A,Rain,Light Rain Showers,290,2013-09-03 17:00:00
8:30 PM,53.6,51.8,94,29.65,6.2,NNW,8.9,-,N/A,Rain,Light Rain Showers,330,2013-09-03 17:30:00
9:00 PM,54,51,87,29.68,12,North,6.7,,,Rain,Light Rain,350,2013-09-03 18:00:00
9:00 PM,53.6,51.8,94,29.68,5.6,NNW,8.9,-,N/A,Rain,Light Rain Showers,330,2013-09-03 18:00:00
9:30 PM,53.6,51.8,94,29.68,6.2,NNW,8.9,-,N/A,Rain,Light Rain Showers,330,2013-09-03 18:30:00
10:00 PM,53.6,51.8,94,29.71,6.2,North,11.2,-,N/A,Rain,Light Rain Showers,360,2013-09-03 19:00:00
10:30 PM,53.6,50.0,88,29.71,6.2,North,11.2,-,N/A,Rain,Light Rain Showers,360,2013-09-03 19:30:00
11:00 PM,51.8,50.0,94,29.74,6.2,North,11.2,-,N/A,Rain,Light Rain Showers,350,2013-09-03 20:00:00
11:30 PM,51.8,51.8,100,29.74,6.2,NW,8.9,-,N/A,Rain,Light Rain Showers,320,2013-09-03 20:30:00